TimeEDT,TemperatureF,Dew PointF,Humidity,Sea Level PressureIn,VisibilityMPH,Wind Direction,Wind SpeedMPH,Gust SpeedMPH,PrecipitationIn,Events,Conditions,WindDirDegrees,DateUTC
12:53 AM,55.0,54.0,96,30.02,5.0,Calm,Calm,-,N/A,,Mist,0,2013-10-03 04:53:00
1:02 AM,53.6,53.6,100,30.03,2.0,Calm,Calm,-,N/A,,Mist,0,2013-10-03 05:02:00
1:12 AM,55.4,53.6,94,30.03,6.0,Calm,Calm,-,N/A,,Mist,0,2013-10-03 05:12:00
1:53 AM,53.1,52.0,96,30.03,6.0,Calm,Calm,-,N/A,,Mist,0,2013-10-03 05:53:00
2:12 AM,51.8,50.0,94,30.04,2.5,Calm,Calm,-,N/A,,Mist,0,2013-10-03 06:12:00
2:21 AM,51.8,50.0,94,30.04,3.0,Calm,Calm,-,N/A,,Mist,0,2013-10-03 06:21:00
2:53 AM,52.0,50.0,93,30.03,6.0,Variable,3.5,-,N/A,,Mist,0,2013-10-03 06:53:00
3:53 AM,48.9,46.9,93,30.04,6.0,Calm,Calm,-,0.01,,Mist,0,2013-10-03 07:53:00
4:50 AM,48.2,48.2,100,30.06,2.0,Calm,Calm,-,N/A,,Mist,0,2013-10-03 08:50:00
4:53 AM,48.9,48.0,97,30.05,3.0,Calm,Calm,-,N/A,,Mist,0,2013-10-03 08:53:00
5:53 AM,46.9,46.0,97,30.07,5.0,Calm,Calm,-,N/A,,Mist,0,2013-10-03 09:53:00
6:45 AM,48.2,46.4,93,30.09,2.0,Calm,Calm,-,N/A,,Overcast,0,2013-10-03 10:45:00
6:53 AM,48.0,46.9,96,30.09,2.0,Calm,Calm,-,N/A,,Overcast,0,2013-10-03 10:53:00
7:07 AM,48.2,48.2,100,30.10,2.0,Calm,Calm,-,N/A,,Overcast,0,2013-10-03 11:07:00
7:53 AM,51.1,48.9,92,30.10,6.0,Calm,Calm,-,N/A,,Scattered Clouds,0,2013-10-03 11:53:00
8:53 AM,57.9,54.0,87,30.12,10.0,Calm,Calm,-,N/A,,Scattered Clouds,0,2013-10-03 12:53:00
9:53 AM,63.0,55.9,78,30.13,10.0,Calm,Calm,-,N/A,,Scattered Clouds,0,2013-10-03 13:53:00
10:53 AM,66.9,55.0,66,30.12,10.0,Variable,4.6,-,N/A,,Unknown,0,2013-10-03 14:53:00
11:53 AM,71.1,55.0,57,30.09,10.0,Calm,Calm,-,N/A,,Unknown,0,2013-10-03 15:53:00
12:53 PM,73.0,51.1,46,30.08,10.0,Calm,Calm,-,N/A,,Clear,0,2013-10-03 16:53:00
1:53 PM,73.0,52.0,48,30.05,10.0,Calm,Calm,-,N/A,,Clear,0,2013-10-03 17:53:00
2:53 PM,75.9,50.0,40,30.04,10.0,Calm,Calm,-,N/A,,Mostly Cloudy,0,2013-10-03 18:53:00
3:53 PM,75.9,51.1,42,30.02,10.0,Calm,Calm,-,N/A,,Mostly Cloudy,0,2013-10-03 19:53:00
4:53 PM,73.9,55.0,52,30.01,10.0,SE,3.5,-,N/A,,Unknown,130,2013-10-03 20:53:00
5:53 PM,69.1,59.0,70,30.03,10.0,Calm,Calm,-,N/A,,Overcast,0,2013-10-03 21:53:00
6:53 PM,64.9,60.1,84,30.03,10.0,Calm,Calm,-,N/A,,Overcast,0,2013-10-03 22:53:00
7:53 PM,61.0,57.9,90,30.03,10.0,Calm,Calm,-,N/A,,Overcast,0,2013-10-03 23:53:00
8:53 PM,61.0,57.9,90,30.04,10.0,Calm,Calm,-,N/A,,Unknown,0,2013-10-04 00:53:00
9:53 PM,60.1,57.0,90,30.05,10.0,Calm,Calm,-,N/A,,Unknown,0,2013-10-04 01:53:00
10:53 PM,59.0,55.9,90,30.06,10.0,Calm,Calm,-,N/A,,Unknown,0,2013-10-04 02:53:00